Вернуться в каталог

GLOBALSTAR M061

АктивенСвязьLEO
NORAD 25964·PAYLOAD·🇺🇸 United States

Запущен Nov 22, 1999 с Baikonur Cosmodrome

Loading…

Ближайшие Пролёты (ближайшие 24 часа)

TLE

СвежийSource: Space-Track

Эпоха: Sep 14, 2026, 21:17 UTC

1 25964U 99062D   26257.88704102 -.00000072  00000-0  13699-3 0  9995
2 25964  51.9773  99.4896 0006835  97.1696 302.4984 11.76779918174711

Отслеживайте GLOBALSTAR M061 в реальном времени с AllMySat

Download on the App Store